ASG401 SADF-SADF

Flight info

Callsign ASG401
Flight time 0h 21m
Altitude 1500
Route /
Aircraft C152/L-V/C

Departure

Time 2026-04-26 21:04
Airport San Fernando Airport (SADF)

Arrival

Time 2026-04-26 21:25
Airport San Fernando Airport (SADF)
Time Latitude Longitude Altitude Speed Heading
2026-04-26 20:44 -34.45523 -58.58313 18 ft 0 kts 66°
2026-04-26 20:55 -34.45522 -58.58312 18 ft 0 kts 64°
2026-04-26 20:59 -34.45509 -58.58279 17 ft 10 kts 62°
2026-04-26 20:59 -34.45447 -58.58250 16 ft 10 kts 17°
2026-04-26 20:59 -34.45407 -58.58161 15 ft 14 kts 64°
2026-04-26 21:00 -34.45358 -58.58043 13 ft 18 kts 65°
2026-04-26 21:00 -34.45304 -58.57986 12 ft 12 kts 329°
2026-04-26 21:00 -34.45223 -58.58045 12 ft 15 kts 328°
2026-04-26 21:00 -34.45121 -58.58116 11 ft 19 kts 330°
2026-04-26 21:01 -34.45005 -58.58204 11 ft 21 kts 330°
2026-04-26 21:01 -34.44907 -58.58273 10 ft 5 kts 330°
2026-04-26 21:01 -34.44905 -58.58274 10 ft 0 kts 330°
2026-04-26 21:02 -34.44895 -58.58282 10 ft 7 kts 324°
2026-04-26 21:03 -34.44857 -58.58370 10 ft 18 kts 251°
2026-04-26 21:03 -34.45003 -58.58560 14 ft 53 kts 225°
2026-04-26 21:03 -34.45325 -58.58936 140 ft 67 kts 226°
2026-04-26 21:03 -34.45617 -58.59353 365 ft 63 kts 229°
2026-04-26 21:04 -34.45906 -58.59782 538 ft 67 kts 232°
2026-04-26 21:04 -34.46205 -58.60211 770 ft 64 kts 229°
2026-04-26 21:04 -34.46482 -58.60602 985 ft 62 kts 242°
2026-04-26 21:04 -34.46290 -58.61030 1146 ft 67 kts 317°
2026-04-26 21:05 -34.45912 -58.61411 1301 ft 74 kts 320°
2026-04-26 21:05 -34.45480 -58.61841 1396 ft 87 kts 319°
2026-04-26 21:05 -34.45010 -58.62305 1525 ft 91 kts 322°
2026-04-26 21:05 -34.44398 -58.62535 1581 ft 99 kts
2026-04-26 21:06 -34.43744 -58.62208 1534 ft 107 kts 46°
2026-04-26 21:06 -34.43347 -58.61516 1510 ft 96 kts 57°
2026-04-26 21:06 -34.43017 -58.60851 1481 ft 91 kts 57°
2026-04-26 21:06 -34.42659 -58.60224 1470 ft 87 kts 56°
2026-04-26 21:07 -34.42291 -58.59649 1442 ft 86 kts 44°
2026-04-26 21:07 -34.41874 -58.59134 1428 ft 84 kts 45°
2026-04-26 21:07 -34.41611 -58.58577 1492 ft 74 kts 95°
2026-04-26 21:07 -34.41907 -58.58058 1438 ft 82 kts 139°
2026-04-26 21:08 -34.42364 -58.57556 1253 ft 88 kts 137°
2026-04-26 21:08 -34.42810 -58.57068 1073 ft 88 kts 140°
2026-04-26 21:08 -34.43310 -58.56636 792 ft 90 kts 163°
2026-04-26 21:08 -34.43776 -58.56939 586 ft 80 kts 238°
2026-04-26 21:09 -34.44088 -58.57494 346 ft 79 kts 231°
2026-04-26 21:09 -34.44448 -58.57933 166 ft 67 kts 212°
2026-04-26 21:09 -34.44760 -58.58272 85 ft 58 kts 218°
2026-04-26 21:09 -34.45040 -58.58603 20 ft 54 kts 223°
2026-04-26 21:10 -34.45326 -58.58934 41 ft 66 kts 224°
2026-04-26 21:10 -34.45667 -58.59358 210 ft 71 kts 227°
2026-04-26 21:10 -34.46011 -58.59797 393 ft 73 kts 227°
2026-04-26 21:10 -34.46355 -58.60247 549 ft 73 kts 225°
2026-04-26 21:11 -34.46699 -58.60639 700 ft 66 kts 236°
2026-04-26 21:11 -34.46753 -58.60948 784 ft 71 kts 277°
2026-04-26 21:11 -34.46725 -58.61080 819 ft 72 kts 290°
2026-04-26 21:11 -34.46397 -58.61572 977 ft 75 kts 309°
2026-04-26 21:12 -34.46082 -58.62016 1090 ft 70 kts 311°
2026-04-26 21:12 -34.45690 -58.62364 1170 ft 72 kts 356°
2026-04-26 21:12 -34.45242 -58.62076 1262 ft 77 kts 42°
2026-04-26 21:12 -34.44819 -58.61587 1264 ft 90 kts 43°
2026-04-26 21:13 -34.44392 -58.61092 1371 ft 85 kts 43°
2026-04-26 21:13 -34.43933 -58.60600 1378 ft 91 kts 38°
2026-04-26 21:13 -34.43441 -58.60088 1376 ft 94 kts 40°
2026-04-26 21:13 -34.42945 -58.59577 1344 ft 91 kts 39°
2026-04-26 21:14 -34.42483 -58.59097 1281 ft 85 kts 38°
2026-04-26 21:14 -34.42038 -58.58692 1263 ft 77 kts 33°
2026-04-26 21:14 -34.41624 -58.58349 1274 ft 69 kts 31°
2026-04-26 21:14 -34.41182 -58.58010 1261 ft 80 kts 30°
2026-04-26 21:15 -34.40699 -58.57648 1334 ft 81 kts 30°
2026-04-26 21:15 -34.40212 -58.57270 1374 ft 85 kts 41°
2026-04-26 21:15 -34.39974 -58.56648 1445 ft 84 kts 92°
2026-04-26 21:15 -34.40301 -58.56115 1512 ft 83 kts 146°
2026-04-26 21:16 -34.40798 -58.55677 1465 ft 94 kts 144°
2026-04-26 21:16 -34.41334 -58.55225 1479 ft 93 kts 147°
2026-04-26 21:16 -34.41904 -58.54840 1489 ft 91 kts 179°
2026-04-26 21:16 -34.42365 -58.55290 1321 ft 92 kts 238°
2026-04-26 21:17 -34.42702 -58.55931 959 ft 88 kts 248°
2026-04-26 21:17 -34.43114 -58.56446 652 ft 82 kts 219°
2026-04-26 21:17 -34.43525 -58.56850 474 ft 71 kts 223°
2026-04-26 21:17 -34.43884 -58.57261 353 ft 72 kts 225°
2026-04-26 21:18 -34.44245 -58.57685 239 ft 73 kts 224°
2026-04-26 21:18 -34.44604 -58.58096 119 ft 70 kts 223°
2026-04-26 21:18 -34.44960 -58.58509 50 ft 70 kts 224°
2026-04-26 21:18 -34.45289 -58.58893 27 ft 57 kts 225°
2026-04-26 21:19 -34.45580 -58.59234 43 ft 69 kts 223°
2026-04-26 21:19 -34.45923 -58.59653 234 ft 70 kts 228°
2026-04-26 21:19 -34.46251 -58.60079 450 ft 68 kts 225°
2026-04-26 21:19 -34.46593 -58.60462 678 ft 67 kts 221°
2026-04-26 21:20 -34.46935 -58.60884 858 ft 69 kts 236°
2026-04-26 21:20 -34.46893 -58.61435 1021 ft 76 kts 310°
2026-04-26 21:20 -34.46513 -58.61912 1185 ft 80 kts 313°
2026-04-26 21:20 -34.46123 -58.62386 1377 ft 79 kts 319°
2026-04-26 21:21 -34.45605 -58.62500 1541 ft 84 kts 22°
2026-04-26 21:21 -34.45180 -58.61976 1646 ft 92 kts 45°
2026-04-26 21:21 -34.44699 -58.61382 1511 ft 99 kts 45°
2026-04-26 21:21 -34.44236 -58.60787 1406 ft 95 kts 45°
2026-04-26 21:22 -34.43786 -58.60220 1342 ft 91 kts 44°
2026-04-26 21:22 -34.43373 -58.59682 1267 ft 86 kts 48°
2026-04-26 21:22 -34.42988 -58.59164 1176 ft 81 kts 47°
2026-04-26 21:23 -34.42251 -58.58186 1016 ft 74 kts 45°
2026-04-26 21:23 -34.41929 -58.57696 967 ft 73 kts 69°
2026-04-26 21:23 -34.42073 -58.57162 923 ft 72 kts 136°
2026-04-26 21:23 -34.42440 -58.56691 784 ft 77 kts 131°
2026-04-26 21:24 -34.42846 -58.56397 749 ft 68 kts 186°
2026-04-26 21:24 -34.43280 -58.56541 655 ft 62 kts 216°
2026-04-26 21:24 -34.43598 -58.56897 479 ft 62 kts 226°
2026-04-26 21:24 -34.43882 -58.57264 339 ft 57 kts 227°
2026-04-26 21:25 -34.44175 -58.57603 244 ft 58 kts 224°
2026-04-26 21:25 -34.44475 -58.57944 152 ft 60 kts 223°
2026-04-26 21:25 -34.44767 -58.58278 85 ft 53 kts 225°
2026-04-26 21:25 -34.45010 -58.58570 19 ft 46 kts 224°
2026-04-26 21:26 -34.45232 -58.58829 21 ft 57 kts 224°
2026-04-26 21:26 -34.45568 -58.59220 153 ft 70 kts 224°
2026-04-26 21:26 -34.45924 -58.59622 347 ft 72 kts 223°
2026-04-26 21:26 -34.46309 -58.60011 536 ft 73 kts 214°
2026-04-26 21:27 -34.46707 -58.60348 763 ft 67 kts 216°
2026-04-26 21:27 -34.47068 -58.60669 823 ft 61 kts 219°
2026-04-26 21:27 -34.47332 -58.61007 826 ft 52 kts 253°
2026-04-26 21:27 -34.47267 -58.61429 770 ft 55 kts 307°
2026-04-26 21:28 -34.46986 -58.61763 753 ft 61 kts 314°
2026-04-26 21:28 -34.46659 -58.62135 769 ft 65 kts 315°
2026-04-26 21:28 -34.46268 -58.62347 806 ft 65 kts
2026-04-26 21:28 -34.45901 -58.62000 810 ft 69 kts 45°
2026-04-26 21:29 -34.45573 -58.61612 894 ft 64 kts 38°
2026-04-26 21:29 -34.45208 -58.61264 946 ft 68 kts 33°
2026-04-26 21:29 -34.44819 -58.60943 1056 ft 68 kts 29°
2026-04-26 21:29 -34.44385 -58.60656 1120 ft 74 kts 22°
2026-04-26 21:30 -34.43909 -58.60362 1160 ft 82 kts 27°
2026-04-26 21:30 -34.43400 -58.59992 1188 ft 87 kts 33°
2026-04-26 21:30 -34.42905 -58.59575 1234 ft 89 kts 37°
2026-04-26 21:30 -34.42597 -58.59250 1290 ft 86 kts 53°
2026-04-26 21:31 -34.42722 -58.58413 1277 ft 86 kts 143°
2026-04-26 21:31 -34.43214 -58.57994 1040 ft 83 kts 133°
2026-04-26 21:31 -34.43722 -58.57645 721 ft 80 kts 154°
2026-04-26 21:31 -34.44173 -58.57551 511 ft 59 kts 215°
2026-04-26 21:32 -34.44462 -58.57918 249 ft 60 kts 229°
2026-04-26 21:32 -34.44735 -58.58251 107 ft 51 kts 225°
2026-04-26 21:32 -34.44978 -58.58526 42 ft 47 kts 226°
2026-04-26 21:32 -34.45188 -58.58778 21 ft 39 kts 223°
2026-04-26 21:33 -34.45360 -58.58983 23 ft 30 kts 227°
2026-04-26 21:33 -34.45485 -58.59128 25 ft 23 kts 223°
2026-04-26 21:33 -34.45600 -58.59257 27 ft 21 kts 223°
2026-04-26 21:33 -34.45677 -58.59304 29 ft 8 kts 154°
2026-04-26 21:34 -34.45737 -58.59264 29 ft 10 kts 148°
2026-04-26 21:34 -34.45741 -58.59261 29 ft 0 kts 152°
2026-04-26 21:35 -34.45743 -58.59260 29 ft 3 kts 152°
2026-04-26 21:35 -34.45806 -58.59218 29 ft 18 kts 149°
2026-04-26 21:35 -34.45844 -58.59161 29 ft 5 kts 45°
2026-04-26 21:36 -34.45833 -58.59144 29 ft 0 kts 56°
2026-04-26 21:36 -34.45826 -58.59131 28 ft 8 kts 59°
2026-04-26 21:36 -34.45762 -58.58985 26 ft 18 kts 60°
2026-04-26 21:36 -34.45714 -58.58871 25 ft 8 kts 84°
2026-04-26 21:37 -34.45740 -58.58818 25 ft 8 kts 37°
2026-04-26 21:37 -34.45718 -58.58776 24 ft 7 kts 80°
2026-04-26 21:37 -34.45724 -58.58765 24 ft 0 kts 165°